,,,PA_Meas_PMT16A,,PR_Meas_QMR101_102,,RH_Meas_QMH101,,SR_Meas_QMS101,,TA_Meas_QMH101,,GenWind,,GenWind,
date,time,status,PA,status,PR,status,RH,status,SR,status,TA,status,DirAvg,status,SpdAvg,
2012-09-04, 00:00:04,VALID,1008.88,VALID,0,VALID,104,VALID,0,VALID,25.0778,VALID,157,VALID,0,
2012-09-04, 00:01:04,VALID,1008.89,VALID,0,VALID,104,VALID,0,VALID,25.0388,VALID,157,VALID,0,
2012-09-04, 00:02:04,VALID,1008.9,VALID,0,VALID,104,VALID,0,VALID,25.0174,VALID,157,VALID,0,
2012-09-04, 00:03:04,VALID,1008.91,VALID,0,VALID,104,VALID,0,VALID,25.0193,VALID,157,VALID,0,
2012-09-04, 00:04:04,VALID,1008.96,VALID,0,VALID,104,VALID,0.112112,VALID,25.0388,VALID,92,VALID,0,
2012-09-04, 00:05:04,VALID,1008.98,VALID,0,VALID,104,VALID,0,VALID,24.9803,VALID,53,VALID,0,
2012-09-04, 00:06:04,VALID,1009.01,VALID,0,VALID,104,VALID,0,VALID,24.9608,VALID,53,VALID,0,
2012-09-04, 00:07:04,VALID,1009.01,VALID,0,VALID,104,VALID,0,VALID,24.9218,VALID,53,VALID,0,
2012-09-04, 00:08:04,VALID,1009.02,VALID,0,VALID,104,VALID,0.112112,VALID,24.8615,VALID,53,VALID,0,
2012-09-04, 00:09:04,VALID,1009.01,VALID,0,VALID,104,VALID,0,VALID,24.8244,VALID,53,VALID,0,
2012-09-04, 00:10:04,VALID,1009.02,VALID,0,VALID,104,VALID,0,VALID,24.725,VALID,53,VALID,0,
2012-09-04, 00:11:04,VALID,1009.02,VALID,0,VALID,104,VALID,0,VALID,24.6666,VALID,53,VALID,0,
2012-09-04, 00:12:04,VALID,1008.96,VALID,0,VALID,104,VALID,0,VALID,24.6489,VALID,53,VALID,0,
2012-09-04, 00:13:04,VALID,1008.93,VALID,0,VALID,104,VALID,0,VALID,24.6489,VALID,53,VALID,0,
2012-09-04, 00:14:04,VALID,1008.93,VALID,0,VALID,104,VALID,0,VALID,24.6489,VALID,53,VALID,0,
2012-09-04, 00:15:04,VALID,1008.92,VALID,0,VALID,104,VALID,0,VALID,24.6081,VALID,53,VALID,0,
2012-09-04, 00:16:04,VALID,1008.89,VALID,0,VALID,104,VALID,0,VALID,24.6099,VALID,53,VALID,0,
2012-09-04, 00:17:04,VALID,1008.9,VALID,0,VALID,104,VALID,0,VALID,24.5691,VALID,53,VALID,0,
2012-09-04, 00:18:04,VALID,1008.85,VALID,0,VALID,104,VALID,0,VALID,24.571,VALID,53,VALID,0,
2012-09-04, 00:19:04,VALID,1008.85,VALID,0,VALID,104,VALID,0,VALID,24.5515,VALID,53,VALID,0,
2012-09-04, 00:20:04,VALID,1008.88,VALID,0,VALID,104,VALID,0,VALID,24.5125,VALID,53,VALID,0,
2012-09-04, 00:21:04,VALID,1008.86,VALID,0,VALID,104,VALID,0,VALID,24.4911,VALID,53,VALID,0,
2012-09-04, 00:22:04,VALID,1008.83,VALID,0,VALID,104,VALID,0,VALID,24.5125,VALID,53,VALID,0,
2012-09-04, 00:23:04,VALID,1008.84,VALID,0,VALID,104,VALID,0,VALID,24.454,VALID,53,VALID,0,
2012-09-04, 00:24:04,VALID,1008.81,VALID,0,VALID,104,VALID,0,VALID,24.415,VALID,53,VALID,0,
2012-09-04, 00:25:04,VALID,1008.8,VALID,0,VALID,104,VALID,0,VALID,24.415,VALID,53,VALID,0,
2012-09-04, 00:26:04,VALID,1008.8,VALID,0,VALID,104,VALID,0,VALID,24.3761,VALID,53,VALID,0,
2012-09-04, 00:27:04,VALID,1008.76,VALID,0,VALID,104,VALID,0,VALID,24.3956,VALID,53,VALID,0,
2012-09-04, 00:28:04,VALID,1008.76,VALID,0,VALID,104,VALID,0,VALID,24.3956,VALID,53,VALID,0,
2012-09-04, 00:29:04,VALID,1008.75,VALID,0,VALID,104,VALID,0,VALID,24.3956,VALID,53,VALID,0,
2012-09-04, 00:30:04,VALID,1008.73,VALID,0,VALID,104,VALID,0,VALID,24.3566,VALID,53,VALID,0,
2012-09-04, 00:31:04,VALID,1008.74,VALID,0,VALID,104,VALID,0,VALID,24.3566,VALID,53,VALID,0,
2012-09-04, 00:32:04,VALID,1008.75,VALID,0,VALID,104,VALID,0,VALID,24.3371,VALID,53,VALID,0,
2012-09-04, 00:33:04,VALID,1008.77,VALID,0,VALID,104,VALID,0,VALID,24.3371,VALID,53,VALID,0,
2012-09-04, 00:34:04,VALID,1008.77,VALID,0,VALID,104,VALID,0,VALID,24.3176,VALID,53,VALID,0,
2012-09-04, 00:35:04,VALID,1008.77,VALID,0,VALID,104,VALID,0,VALID,24.2963,VALID,53,VALID,0,
2012-09-04, 00:36:04,VALID,1008.77,VALID,0,VALID,104,VALID,0,VALID,24.3176,VALID,53,VALID,0,
2012-09-04, 00:37:04,VALID,1008.79,VALID,0,VALID,104,VALID,0,VALID,24.3176,VALID,53,VALID,0,
2012-09-04, 00:38:04,VALID,1008.79,VALID,0,VALID,104,VALID,0,VALID,24.2981,VALID,53,VALID,0,
2012-09-04, 00:39:04,VALID,1008.76,VALID,0,VALID,104,VALID,0,VALID,24.2378,VALID,53,VALID,0,
2012-09-04, 00:40:04,VALID,1008.78,VALID,0,VALID,104,VALID,0,VALID,24.2591,VALID,53,VALID,0,
2012-09-04, 00:41:04,VALID,1008.77,VALID,0,VALID,104,VALID,0,VALID,24.2396,VALID,53,VALID,0,
2012-09-04, 00:42:04,VALID,1008.8,VALID,0,VALID,104,VALID,0,VALID,24.1988,VALID,53,VALID,0,
2012-09-04, 00:43:04,VALID,1008.75,VALID,0,VALID,104,VALID,0.112112,VALID,24.1599,VALID,53,VALID,0,
2012-09-04, 00:44:04,VALID,1008.73,VALID,0,VALID,104,VALID,0,VALID,24.1617,VALID,53,VALID,0,
2012-09-04, 00:45:04,VALID,1008.71,VALID,0,VALID,104,VALID,0,VALID,24.1422,VALID,53,VALID,0,
2012-09-04, 00:46:04,VALID,1008.68,VALID,0,VALID,104,VALID,0,VALID,24.1227,VALID,53,VALID,0,
2012-09-04, 00:47:04,VALID,1008.69,VALID,0,VALID,104,VALID,0,VALID,24.1032,VALID,53,VALID,0,
2012-09-04, 00:48:04,VALID,1008.69,VALID,0,VALID,104,VALID,0,VALID,24.0819,VALID,53,VALID,0,
2012-09-04, 00:49:04,VALID,1008.68,VALID,0,VALID,104,VALID,0,VALID,24.1032,VALID,53,VALID,0,
2012-09-04, 00:50:04,VALID,1008.69,VALID,0,VALID,104,VALID,0,VALID,24.0819,VALID,53,VALID,0,
2012-09-04, 00:51:04,VALID,1008.68,VALID,0,VALID,104,VALID,0,VALID,24.0837,VALID,53,VALID,0,
2012-09-04, 00:52:04,VALID,1008.71,VALID,0,VALID,104,VALID,0,VALID,24.0643,VALID,53,VALID,0,
2012-09-04, 00:53:04,VALID,1008.69,VALID,0,VALID,104,VALID,0,VALID,24.0643,VALID,53,VALID,0,
2012-09-04, 00:54:04,VALID,1008.68,VALID,0,VALID,104,VALID,0,VALID,24.0235,VALID,53,VALID,0,
2012-09-04, 00:55:04,VALID,1008.71,VALID,0,VALID,104,VALID,0,VALID,24.0253,VALID,53,VALID,0,
2012-09-04, 00:56:04,VALID,1008.75,VALID,0,VALID,104,VALID,0,VALID,24.0058,VALID,53,VALID,0,
2012-09-04, 00:57:04,VALID,1008.77,VALID,0,VALID,104,VALID,0,VALID,23.9863,VALID,53,VALID,0,
2012-09-04, 00:58:04,VALID,1008.8,VALID,0,VALID,104,VALID,0,VALID,23.965,VALID,53,VALID,0,
2012-09-04, 00:59:04,VALID,1008.8,VALID,0,VALID,104,VALID,0,VALID,23.9455,VALID,53,VALID,0,
2012-09-04, 01:00:04,VALID,1008.84,VALID,0,VALID,104,VALID,0,VALID,23.926,VALID,53,VALID,0,
2012-09-04, 01:01:04,VALID,1008.83,VALID,0,VALID,104,VALID,0,VALID,23.9278,VALID,53,VALID,0,
2012-09-04, 01:02:04,VALID,1008.85,VALID,0,VALID,104,VALID,0,VALID,23.8871,VALID,53,VALID,0,
2012-09-04, 01:03:04,VALID,1008.82,VALID,0,VALID,104,VALID,0,VALID,23.9084,VALID,53,VALID,0,
2012-09-04, 01:04:04,VALID,1008.8,VALID,0,VALID,104,VALID,0,VALID,23.8694,VALID,53,VALID,0,
2012-09-04, 01:05:04,VALID,1008.79,VALID,0,VALID,104,VALID,0,VALID,23.8889,VALID,53,VALID,0,
2012-09-04, 01:06:04,VALID,1008.77,VALID,0,VALID,104,VALID,0,VALID,23.8889,VALID,53,VALID,0,
2012-09-04, 01:07:04,VALID,1008.75,VALID,0,VALID,104,VALID,0,VALID,23.8676,VALID,53,VALID,0,
2012-09-04, 01:08:04,VALID,1008.75,VALID,0,VALID,104,VALID,0,VALID,23.8889,VALID,53,VALID,0,
2012-09-04, 01:09:04,VALID,1008.74,VALID,0,VALID,104,VALID,0,VALID,23.8286,VALID,53,VALID,0,
2012-09-04, 01:10:04,VALID,1008.69,VALID,0,VALID,104,VALID,0,VALID,23.8091,VALID,53,VALID,0,
2012-09-04, 01:11:04,VALID,1008.69,VALID,0,VALID,104,VALID,0,VALID,23.8304,VALID,53,VALID,0,
2012-09-04, 01:12:04,VALID,1008.69,VALID,0,VALID,104,VALID,0,VALID,23.8304,VALID,53,VALID,0,
2012-09-04, 01:13:04,VALID,1008.65,VALID,0,VALID,104,VALID,0,VALID,23.8304,VALID,53,VALID,0,
2012-09-04, 01:14:04,VALID,1008.65,VALID,0,VALID,104,VALID,0,VALID,23.8499,VALID,53,VALID,0,
2012-09-04, 01:15:04,VALID,1008.64,VALID,0,VALID,104,VALID,0,VALID,23.8286,VALID,53,VALID,0,
2012-09-04, 01:16:04,VALID,1008.61,VALID,0,VALID,104,VALID,0,VALID,23.8499,VALID,53,VALID,0,
2012-09-04, 01:17:04,VALID,1008.58,VALID,0,VALID,104,VALID,0,VALID,23.8499,VALID,53,VALID,0,
2012-09-04, 01:18:04,VALID,1008.54,VALID,0,VALID,104,VALID,0,VALID,23.8694,VALID,53,VALID,0,
2012-09-04, 01:19:04,VALID,1008.52,VALID,0,VALID,104,VALID,0,VALID,23.8889,VALID,53,VALID,0,
2012-09-04, 01:20:04,VALID,1008.48,VALID,0,VALID,104,VALID,0,VALID,23.8889,VALID,53,VALID,0,
2012-09-04, 01:21:04,VALID,1008.44,VALID,0,VALID,104,VALID,0,VALID,23.8889,VALID,53,VALID,0,
2012-09-04, 01:22:04,VALID,1008.44,VALID,0,VALID,104,VALID,0,VALID,23.8889,VALID,53,VALID,0,
2012-09-04, 01:23:04,VALID,1008.43,VALID,0,VALID,104,VALID,0,VALID,23.8676,VALID,53,VALID,0,
2012-09-04, 01:24:04,VALID,1008.42,VALID,0,VALID,104,VALID,0,VALID,23.8889,VALID,53,VALID,0,
2012-09-04, 01:25:04,VALID,1008.42,VALID,0,VALID,104,VALID,0,VALID,23.8889,VALID,53,VALID,0,
2012-09-04, 01:26:04,VALID,1008.43,VALID,0,VALID,104,VALID,0,VALID,23.8676,VALID,53,VALID,0,
2012-09-04, 01:27:04,VALID,1008.42,VALID,0,VALID,104,VALID,0,VALID,23.8889,VALID,53,VALID,0,
2012-09-04, 01:28:04,VALID,1008.42,VALID,0,VALID,104,VALID,0,VALID,23.8889,VALID,53,VALID,0,
2012-09-04, 01:29:04,VALID,1008.43,VALID,0,VALID,104,VALID,0,VALID,23.8889,VALID,53,VALID,0,
2012-09-04, 01:30:04,VALID,1008.41,VALID,0,VALID,104,VALID,0.112112,VALID,23.8676,VALID,53,VALID,0,
2012-09-04, 01:31:04,VALID,1008.43,VALID,0,VALID,104,VALID,0,VALID,23.8304,VALID,53,VALID,0,
2012-09-04, 01:32:04,VALID,1008.41,VALID,0,VALID,104,VALID,0,VALID,23.7914,VALID,53,VALID,0,
2012-09-04, 01:33:04,VALID,1008.44,VALID,0,VALID,104,VALID,0,VALID,23.772,VALID,53,VALID,0,
2012-09-04, 01:34:04,VALID,1008.41,VALID,0,VALID,104,VALID,0,VALID,23.7525,VALID,53,VALID,0,
2012-09-04, 01:35:04,VALID,1008.4,VALID,0,VALID,104,VALID,0,VALID,23.7525,VALID,53,VALID,0,
2012-09-04, 01:36:04,VALID,1008.43,VALID,0,VALID,104,VALID,0,VALID,23.772,VALID,53,VALID,0,
2012-09-04, 01:37:04,VALID,1008.42,VALID,0,VALID,104,VALID,0,VALID,23.7312,VALID,53,VALID,0,
2012-09-04, 01:38:04,VALID,1008.46,VALID,0,VALID,104,VALID,0,VALID,23.7135,VALID,53,VALID,0,
2012-09-04, 01:39:04,VALID,1008.47,VALID,0,VALID,104,VALID,0,VALID,23.6745,VALID,53,VALID,0,
2012-09-04, 01:40:04,VALID,1008.46,VALID,0,VALID,104,VALID,0,VALID,23.6161,VALID,53,VALID,0,
2012-09-04, 01:41:04,VALID,1008.5,VALID,0,VALID,104,VALID,0,VALID,23.6161,VALID,53,VALID,0,
2012-09-04, 01:42:04,VALID,1008.49,VALID,0,VALID,104,VALID,0,VALID,23.5558,VALID,53,VALID,0,
2012-09-04, 01:43:04,VALID,1008.48,VALID,0,VALID,104,VALID,0,VALID,23.5594,VALID,53,VALID,0,
2012-09-04, 01:44:04,VALID,1008.48,VALID,0,VALID,104,VALID,0,VALID,23.5381,VALID,53,VALID,0,
2012-09-04, 01:45:04,VALID,1008.49,VALID,0,VALID,104,VALID,0,VALID,23.5363,VALID,53,VALID,0,
2012-09-04, 01:46:04,VALID,1008.5,VALID,0,VALID,104,VALID,0,VALID,23.5576,VALID,53,VALID,0,
2012-09-04, 01:47:04,VALID,1008.48,VALID,0,VALID,104,VALID,0.112112,VALID,23.5558,VALID,53,VALID,0,
2012-09-04, 01:48:04,VALID,1008.48,VALID,0,VALID,104,VALID,0,VALID,23.5753,VALID,53,VALID,0,
2012-09-04, 01:49:04,VALID,1008.48,VALID,0,VALID,104,VALID,0,VALID,23.6161,VALID,53,VALID,0,
2012-09-04, 01:50:04,VALID,1008.47,VALID,0,VALID,104,VALID,0,VALID,23.6356,VALID,53,VALID,0,
2012-09-04, 01:51:04,VALID,1008.46,VALID,0,VALID,104,VALID,0.112112,VALID,23.6338,VALID,53,VALID,0,
2012-09-04, 01:52:04,VALID,1008.43,VALID,0,VALID,104,VALID,0,VALID,23.6356,VALID,53,VALID,0,
2012-09-04, 01:53:04,VALID,1008.41,VALID,0,VALID,104,VALID,0,VALID,23.5966,VALID,53,VALID,0,
2012-09-04, 01:54:04,VALID,1008.38,VALID,0,VALID,104,VALID,0,VALID,23.5753,VALID,53,VALID,0,
2012-09-04, 01:55:04,VALID,1008.37,VALID,0,VALID,104,VALID,0,VALID,23.5966,VALID,53,VALID,0,
2012-09-04, 01:56:04,VALID,1008.41,VALID,0,VALID,104,VALID,0,VALID,23.6161,VALID,53,VALID,0,
2012-09-04, 01:57:04,VALID,1008.38,VALID,0,VALID,104,VALID,0,VALID,23.6161,VALID,53,VALID,0,
2012-09-04, 01:58:04,VALID,1008.42,VALID,0,VALID,104,VALID,0,VALID,23.6356,VALID,48,VALID,0,
2012-09-04, 01:59:04,VALID,1008.41,VALID,0,VALID,104,VALID,0,VALID,23.6161,VALID,48,VALID,0,
2012-09-04, 02:00:04,VALID,1008.42,VALID,0,VALID,104,VALID,0,VALID,23.6161,VALID,48,VALID,0,
2012-09-04, 02:01:04,VALID,1008.43,VALID,0,VALID,104,VALID,0,VALID,23.5966,VALID,48,VALID,0,
2012-09-04, 02:02:04,VALID,1008.4,VALID,0,VALID,104,VALID,0,VALID,23.6161,VALID,23,VALID,0,
2012-09-04, 02:03:04,VALID,1008.39,VALID,0,VALID,104,VALID,0,VALID,23.5948,VALID,360,VALID,0,
2012-09-04, 02:04:04,VALID,1008.36,VALID,0,VALID,104,VALID,0,VALID,23.5966,VALID,360,VALID,0,
2012-09-04, 02:05:04,VALID,1008.35,VALID,0,VALID,104,VALID,0.112112,VALID,23.5771,VALID,360,VALID,0,
2012-09-04, 02:06:04,VALID,1008.33,VALID,0,VALID,104,VALID,0,VALID,23.5771,VALID,360,VALID,0,
2012-09-04, 02:07:04,VALID,1008.33,VALID,0,VALID,104,VALID,0,VALID,23.5771,VALID,360,VALID,0,
2012-09-04, 02:08:04,VALID,1008.34,VALID,0,VALID,104,VALID,0,VALID,23.5753,VALID,360,VALID,0,
2012-09-04, 02:09:04,VALID,1008.33,VALID,0,VALID,104,VALID,0,VALID,23.6161,VALID,360,VALID,0,
2012-09-04, 02:10:04,VALID,1008.33,VALID,0,VALID,104,VALID,0,VALID,23.5753,VALID,360,VALID,0,
2012-09-04, 02:11:04,VALID,1008.3,VALID,0,VALID,104,VALID,0,VALID,23.5966,VALID,360,VALID,0,
2012-09-04, 02:12:04,VALID,1008.31,VALID,0,VALID,104,VALID,0,VALID,23.5966,VALID,360,VALID,0,
2012-09-04, 02:13:04,VALID,1008.32,VALID,0,VALID,104,VALID,0,VALID,23.5966,VALID,360,VALID,0,
2012-09-04, 02:14:04,VALID,1008.3,VALID,0,VALID,104,VALID,0,VALID,23.5753,VALID,360,VALID,0,
2012-09-04, 02:15:04,VALID,1008.3,VALID,0,VALID,104,VALID,0,VALID,23.5771,VALID,360,VALID,0,
2012-09-04, 02:16:04,VALID,1008.3,VALID,0,VALID,104,VALID,0.112112,VALID,23.5753,VALID,360,VALID,0,
2012-09-04, 02:17:04,VALID,1008.29,VALID,0,VALID,104,VALID,0,VALID,23.5558,VALID,360,VALID,0,
2012-09-04, 02:18:04,VALID,1008.28,VALID,0,VALID,104,VALID,0,VALID,23.5771,VALID,360,VALID,0,
2012-09-04, 02:19:04,VALID,1008.27,VALID,0,VALID,104,VALID,0,VALID,23.5576,VALID,360,VALID,0,
2012-09-04, 02:20:04,VALID,1008.28,VALID,0,VALID,104,VALID,0,VALID,23.5381,VALID,360,VALID,0,
2012-09-04, 02:21:04,VALID,1008.27,VALID,0,VALID,104,VALID,0,VALID,23.5186,VALID,360,VALID,0,
2012-09-04, 02:22:04,VALID,1008.26,VALID,0,VALID,104,VALID,0,VALID,23.5186,VALID,360,VALID,0,
2012-09-04, 02:23:04,VALID,1008.29,VALID,0,VALID,104,VALID,0,VALID,23.4974,VALID,360,VALID,0,
2012-09-04, 02:24:04,VALID,1008.28,VALID,0,VALID,104,VALID,0,VALID,23.5363,VALID,360,VALID,0,
2012-09-04, 02:25:04,VALID,1008.28,VALID,0,VALID,104,VALID,0,VALID,23.5771,VALID,360,VALID,0,
2012-09-04, 02:26:04,VALID,1008.28,VALID,0,VALID,104,VALID,0.112112,VALID,23.5771,VALID,360,VALID,0,
2012-09-04, 02:27:04,VALID,1008.28,VALID,0,VALID,104,VALID,0,VALID,23.5966,VALID,360,VALID,0,
2012-09-04, 02:28:04,VALID,1008.26,VALID,0,VALID,104,VALID,0,VALID,23.5948,VALID,360,VALID,0,
2012-09-04, 02:29:04,VALID,1008.28,VALID,0,VALID,104,VALID,0,VALID,23.6161,VALID,360,VALID,0,
2012-09-04, 02:30:04,VALID,1008.25,VALID,0,VALID,104,VALID,0,VALID,23.6161,VALID,360,VALID,0,
2012-09-04, 02:31:04,VALID,1008.27,VALID,0,VALID,104,VALID,0,VALID,23.6161,VALID,360,VALID,0,
2012-09-04, 02:32:04,VALID,1008.26,VALID,0,VALID,104,VALID,0,VALID,23.6356,VALID,360,VALID,0,
2012-09-04, 02:33:04,VALID,1008.28,VALID,0,VALID,104,VALID,0,VALID,23.6356,VALID,360,VALID,0,
2012-09-04, 02:34:04,VALID,1008.27,VALID,0,VALID,104,VALID,0,VALID,23.6161,VALID,360,VALID,0,
2012-09-04, 02:35:04,VALID,1008.31,VALID,0,VALID,104,VALID,0,VALID,23.5753,VALID,360,VALID,0,
2012-09-04, 02:36:04,VALID,1008.3,VALID,0,VALID,104,VALID,0,VALID,23.5558,VALID,360,VALID,0,
2012-09-04, 02:37:04,VALID,1008.3,VALID,0,VALID,104,VALID,0,VALID,23.5363,VALID,360,VALID,0,
2012-09-04, 02:38:04,VALID,1008.29,VALID,0,VALID,104,VALID,0,VALID,23.5576,VALID,360,VALID,0,
2012-09-04, 02:39:04,VALID,1008.28,VALID,0,VALID,104,VALID,0,VALID,23.5576,VALID,360,VALID,0,
2012-09-04, 02:40:04,VALID,1008.31,VALID,0,VALID,104,VALID,0,VALID,23.5558,VALID,360,VALID,0,
2012-09-04, 02:41:04,VALID,1008.29,VALID,0,VALID,104,VALID,0,VALID,23.5363,VALID,360,VALID,0,
2012-09-04, 02:42:04,VALID,1008.32,VALID,0,VALID,104,VALID,0,VALID,23.5381,VALID,360,VALID,0,
2012-09-04, 02:43:04,VALID,1008.3,VALID,0,VALID,104,VALID,0,VALID,23.5186,VALID,360,VALID,0,
2012-09-04, 02:44:04,VALID,1008.3,VALID,0,VALID,104,VALID,0,VALID,23.4974,VALID,360,VALID,0,
2012-09-04, 02:45:04,VALID,1008.3,VALID,0,VALID,104,VALID,0.112112,VALID,23.5186,VALID,360,VALID,0,
2012-09-04, 02:46:04,VALID,1008.32,VALID,0,VALID,104,VALID,0,VALID,23.4992,VALID,360,VALID,0,
2012-09-04, 02:47:04,VALID,1008.34,VALID,0,VALID,104,VALID,0,VALID,23.4797,VALID,360,VALID,0,
2012-09-04, 02:48:04,VALID,1008.31,VALID,0,VALID,104,VALID,0,VALID,23.4797,VALID,360,VALID,0,
2012-09-04, 02:49:04,VALID,1008.31,VALID,0,VALID,104,VALID,0.112112,VALID,23.4992,VALID,360,VALID,0,
2012-09-04, 02:50:04,VALID,1008.31,VALID,0,VALID,104,VALID,0,VALID,23.4797,VALID,360,VALID,0,
2012-09-04, 02:51:04,VALID,1008.3,VALID,0,VALID,104,VALID,0,VALID,23.4584,VALID,360,VALID,0,
2012-09-04, 02:52:04,VALID,1008.32,VALID,0,VALID,104,VALID,0,VALID,23.4602,VALID,360,VALID,0,
2012-09-04, 02:53:04,VALID,1008.29,VALID,0,VALID,104,VALID,0,VALID,23.4602,VALID,360,VALID,0,
2012-09-04, 02:54:04,VALID,1008.27,VALID,0,VALID,104,VALID,0,VALID,23.4797,VALID,360,VALID,0,
2012-09-04, 02:55:04,VALID,1008.28,VALID,0,VALID,104,VALID,0,VALID,23.4779,VALID,360,VALID,0,
2012-09-04, 02:56:04,VALID,1008.29,VALID,0,VALID,104,VALID,0.112112,VALID,23.4992,VALID,360,VALID,0,
2012-09-04, 02:57:04,VALID,1008.29,VALID,0,VALID,104,VALID,0,VALID,23.4797,VALID,360,VALID,0,
2012-09-04, 02:58:04,VALID,1008.27,VALID,0,VALID,104,VALID,0,VALID,23.4194,VALID,360,VALID,0,
2012-09-04, 02:59:04,VALID,1008.29,VALID,0,VALID,104,VALID,0,VALID,23.3805,VALID,360,VALID,0,
2012-09-04, 03:00:04,VALID,1008.29,VALID,0,VALID,104,VALID,0,VALID,23.3805,VALID,360,VALID,0,
2012-09-04, 03:01:04,VALID,1008.3,VALID,0,VALID,104,VALID,0,VALID,23.4035,VALID,360,VALID,0,
2012-09-04, 03:02:04,VALID,1008.29,VALID,0,VALID,104,VALID,0,VALID,23.3823,VALID,360,VALID,0,
2012-09-04, 03:03:04,VALID,1008.28,VALID,0,VALID,104,VALID,0,VALID,23.423,VALID,360,VALID,0,
2012-09-04, 03:04:04,VALID,1008.27,VALID,0,VALID,104,VALID,0,VALID,23.4035,VALID,360,VALID,0,
2012-09-04, 03:05:04,VALID,1008.28,VALID,0,VALID,104,VALID,0,VALID,23.4035,VALID,360,VALID,0,
2012-09-04, 03:06:04,VALID,1008.25,VALID,0,VALID,104,VALID,0,VALID,23.4035,VALID,360,VALID,0,
2012-09-04, 03:07:04,VALID,1008.28,VALID,0,VALID,104,VALID,0,VALID,23.4035,VALID,360,VALID,0,
2012-09-04, 03:08:04,VALID,1008.26,VALID,0,VALID,104,VALID,0,VALID,23.462,VALID,360,VALID,0,
2012-09-04, 03:09:04,VALID,1008.23,VALID,0,VALID,104,VALID,0,VALID,23.4815,VALID,360,VALID,0,
2012-09-04, 03:10:04,VALID,1008.24,VALID,0,VALID,104,VALID,0,VALID,23.4602,VALID,360,VALID,0,
2012-09-04, 03:11:04,VALID,1008.27,VALID,0,VALID,104,VALID,0,VALID,23.4425,VALID,360,VALID,0,
2012-09-04, 03:12:04,VALID,1008.27,VALID,0,VALID,104,VALID,0,VALID,23.423,VALID,360,VALID,0,
2012-09-04, 03:13:04,VALID,1008.27,VALID,0,VALID,104,VALID,0,VALID,23.3823,VALID,360,VALID,0,
2012-09-04, 03:14:04,VALID,1008.27,VALID,0,VALID,104,VALID,0,VALID,23.3433,VALID,360,VALID,0,
2012-09-04, 03:15:04,VALID,1008.28,VALID,0,VALID,104,VALID,0,VALID,23.3256,VALID,360,VALID,0,
2012-09-04, 03:16:04,VALID,1008.25,VALID,0,VALID,104,VALID,0,VALID,23.3433,VALID,360,VALID,0,
2012-09-04, 03:17:04,VALID,1008.26,VALID,0,VALID,104,VALID,0,VALID,23.322,VALID,360,VALID,0,
2012-09-04, 03:18:04,VALID,1008.2,VALID,0,VALID,104,VALID,0.112112,VALID,23.3026,VALID,360,VALID,0,
2012-09-04, 03:19:04,VALID,1008.2,VALID,0,VALID,104,VALID,0.112112,VALID,23.3238,VALID,360,VALID,0,
2012-09-04, 03:20:04,VALID,1008.19,VALID,0,VALID,104,VALID,0.112112,VALID,23.2848,VALID,360,VALID,0,
2012-09-04, 03:21:04,VALID,1008.19,VALID,0,VALID,104,VALID,0,VALID,23.2441,VALID,360,VALID,0,
2012-09-04, 03:22:05,VALID,1008.19,VALID,0,VALID,104,VALID,0.112112,VALID,23.2246,VALID,360,VALID,0,
2012-09-04, 03:23:05,VALID,1008.21,VALID,0,VALID,104,VALID,0,VALID,23.2459,VALID,360,VALID,0,
2012-09-04, 03:24:05,VALID,1008.23,VALID,0,VALID,104,VALID,0,VALID,23.2459,VALID,360,VALID,0,
2012-09-04, 03:25:05,VALID,1008.27,VALID,0,VALID,104,VALID,0.112112,VALID,23.2654,VALID,360,VALID,0,
2012-09-04, 03:26:05,VALID,1008.29,VALID,0,VALID,104,VALID,0,VALID,23.2441,VALID,360,VALID,0,
2012-09-04, 03:27:05,VALID,1008.31,VALID,0,VALID,104,VALID,0.112112,VALID,23.2459,VALID,360,VALID,0,
2012-09-04, 03:28:05,VALID,1008.3,VALID,0,VALID,104,VALID,0,VALID,23.2051,VALID,360,VALID,0,
2012-09-04, 03:29:05,VALID,1008.33,VALID,0,VALID,104,VALID,0,VALID,23.1874,VALID,360,VALID,0,
2012-09-04, 03:30:05,VALID,1008.29,VALID,0,VALID,104,VALID,0,VALID,23.1662,VALID,360,VALID,0,
2012-09-04, 03:31:05,VALID,1008.3,VALID,0,VALID,104,VALID,0,VALID,23.2051,VALID,360,VALID,0,
2012-09-04, 03:32:05,VALID,1008.32,VALID,0,VALID,104,VALID,0.112112,VALID,23.2246,VALID,360,VALID,0,
2012-09-04, 03:33:05,VALID,1008.32,VALID,0,VALID,104,VALID,0,VALID,23.2264,VALID,360,VALID,0,
2012-09-04, 03:34:05,VALID,1008.32,VALID,0,VALID,104,VALID,0.112112,VALID,23.2441,VALID,360,VALID,0,
2012-09-04, 03:35:05,VALID,1008.34,VALID,0,VALID,104,VALID,0.112112,VALID,23.3043,VALID,360,VALID,0,
2012-09-04, 03:36:05,VALID,1008.33,VALID,0,VALID,104,VALID,0.112112,VALID,23.2848,VALID,360,VALID,0,
2012-09-04, 03:37:05,VALID,1008.31,VALID,0,VALID,104,VALID,0,VALID,23.2848,VALID,360,VALID,0,
2012-09-04, 03:38:05,VALID,1008.28,VALID,0,VALID,104,VALID,0.112112,VALID,23.2441,VALID,360,VALID,0,
2012-09-04, 03:39:05,VALID,1008.28,VALID,0,VALID,104,VALID,0,VALID,23.2051,VALID,360,VALID,0,
2012-09-04, 03:40:05,VALID,1008.28,VALID,0,VALID,104,VALID,0,VALID,23.1662,VALID,360,VALID,0,
2012-09-04, 03:41:05,VALID,1008.28,VALID,0,VALID,104,VALID,0,VALID,23.1485,VALID,360,VALID,0,
2012-09-04, 03:42:05,VALID,1008.28,VALID,0,VALID,104,VALID,0,VALID,23.1485,VALID,360,VALID,0,
2012-09-04, 03:43:05,VALID,1008.29,VALID,0,VALID,104,VALID,0.112112,VALID,23.1077,VALID,360,VALID,0,
2012-09-04, 03:44:05,VALID,1008.27,VALID,0,VALID,104,VALID,0,VALID,23.1095,VALID,360,VALID,0,
2012-09-04, 03:45:05,VALID,1008.23,VALID,0,VALID,104,VALID,0.112112,VALID,23.09,VALID,360,VALID,0,
2012-09-04, 03:46:05,VALID,1008.24,VALID,0,VALID,104,VALID,0.112112,VALID,23.09,VALID,360,VALID,0,
2012-09-04, 03:47:05,VALID,1008.24,VALID,0,VALID,104,VALID,0.112112,VALID,23.09,VALID,360,VALID,0,
2012-09-04, 03:48:05,VALID,1008.23,VALID,0,VALID,104,VALID,0.112112,VALID,23.0688,VALID,360,VALID,0,
2012-09-04, 03:49:05,VALID,1008.24,VALID,0,VALID,104,VALID,0,VALID,23.0493,VALID,360,VALID,0,
2012-09-04, 03:50:05,VALID,1008.24,VALID,0,VALID,104,VALID,0,VALID,23.0688,VALID,360,VALID,0,
2012-09-04, 03:51:05,VALID,1008.3,VALID,0,VALID,104,VALID,0.112112,VALID,23.0493,VALID,360,VALID,0,
2012-09-04, 03:52:05,VALID,1008.26,VALID,0,VALID,104,VALID,0.112112,VALID,23.0493,VALID,360,VALID,0,
2012-09-04, 03:53:05,VALID,1008.26,VALID,0,VALID,104,VALID,0,VALID,23.0298,VALID,360,VALID,0,
2012-09-04, 03:54:05,VALID,1008.26,VALID,0,VALID,104,VALID,0,VALID,23.0511,VALID,360,VALID,0,
2012-09-04, 03:55:05,VALID,1008.3,VALID,0,VALID,104,VALID,0.112112,VALID,22.9909,VALID,360,VALID,0,
2012-09-04, 03:56:05,VALID,1008.27,VALID,0,VALID,104,VALID,0,VALID,23.0121,VALID,360,VALID,0,
2012-09-04, 03:57:05,VALID,1008.32,VALID,0,VALID,104,VALID,0.112112,VALID,22.9909,VALID,360,VALID,0,
2012-09-04, 03:58:05,VALID,1008.33,VALID,0,VALID,104,VALID,0.112112,VALID,23.0316,VALID,360,VALID,0,
2012-09-04, 03:59:05,VALID,1008.35,VALID,0,VALID,104,VALID,0,VALID,23.0121,VALID,360,VALID,0,
2012-09-04, 04:00:05,VALID,1008.33,VALID,0,VALID,104,VALID,0,VALID,22.9909,VALID,360,VALID,0,
2012-09-04, 04:01:05,VALID,1008.34,VALID,0,VALID,104,VALID,0,VALID,22.9731,VALID,360,VALID,0,
2012-09-04, 04:02:05,VALID,1008.33,VALID,0,VALID,104,VALID,0.112112,VALID,22.9731,VALID,360,VALID,0,
2012-09-04, 04:03:05,VALID,1008.33,VALID,0,VALID,104,VALID,0,VALID,22.9714,VALID,360,VALID,0,
2012-09-04, 04:04:05,VALID,1008.37,VALID,0,VALID,104,VALID,0.112112,VALID,22.9926,VALID,360,VALID,0,
2012-09-04, 04:05:05,VALID,1008.39,VALID,0,VALID,104,VALID,0,VALID,22.9714,VALID,360,VALID,0,
2012-09-04, 04:06:05,VALID,1008.43,VALID,0,VALID,104,VALID,0,VALID,22.9926,VALID,360,VALID,0,
2012-09-04, 04:07:05,VALID,1008.46,VALID,0,VALID,104,VALID,0.112112,VALID,22.9926,VALID,360,VALID,0,
2012-09-04, 04:08:05,VALID,1008.47,VALID,0,VALID,104,VALID,0.112112,VALID,22.9926,VALID,360,VALID,0,